Location: Longueuil
(45.5369°N, 73.5107°W)
Time: 04:52:26
(UTC-04:00)

ISS - Pass Details

Date: 30 January 2023
Orbit: 413 x 423 km, 51.6° (Epoch: 02 April)

Event Time Altitude Azimuth Distance (km) Brightness Sun altitude
Rises 18:42:41 0° 298° (WNW) 2,429 1.0 -18.5°
Reaches altitude 10° 18:44:48 10° 299° (WNW) 1,558 -0.1 -18.9°
Maximum altitude 18:48:19 87° 27° (NNE) 445 -3.8 -19.5°
Enters shadow 18:48:37 73° 109° (ESE) 463 -3.8 -19.5°
